Location: ???????
(55.2903°N, 39.1554°E)
Time: 00:43:35
(UTC+00:00)

Cosmos 2322 Rocket - Visible Passes

Search period start: 16 July 2024 00:00
Search period end: 26 July 2024 00:00
Orbit: 831 x 851 km, 71.0° (Epoch: 15 July)

Date Brightness Start Highest point End Pass type
(mag) Time Alt. Az. Time Alt. Az. Time Alt. Az.
23 Jul 4.6 00:25:45 10° SE 00:29:02 16° E 00:32:22 10° ENE visible
24 Jul 4.6 00:10:43 10° SE 00:13:50 15° E 00:16:59 10° ENE visible
24 Jul 4.6 23:55:41 10° SE 23:58:38 15° E 00:01:35 10° ENE visible
25 Jul 4.6 23:40:41 10° SE 23:43:25 14° E 23:46:10 10° ENE visible
